Latest Coastal Weather Observations for Melbourne (Olympic Park)

IDV60701

Issued at 12:55 pm EDT Wednesday 22 October 2014 (issued every 10 minutes, with the page automatically refreshed every 10 minutes)

About coastal observations | Map of coastal stations | Coastal observations for VIC | Marine services | Other Formats
Station Details ID: 086338 Name: MELBOURNE (OLYMPIC PARK) Lat: -37.83 Lon: 144.98 Height: 7.53 m
Data from the previous 72 hours. | See also: Recent months at Melbourne (Olympic Park)
Date/Time
EDT
Temp

°C
Wind Pressure Rain
since 9am
mm
Weather Cloud Vis
km
Sea
Height
m
Swell
Dir
 
Speed
knots
Gust
knots
hPa Trend Height
m
Period
s
Dir
22/12:30pm 27.9 N 13 19 1017.4 - 0.0 - - - - - - -
22/12:00pm 26.9 N 12 19 1017.8 - 0.0 - - - - - - -
22/11:30am 25.8 N 12 19 1018.5 - 0.0 - - - - - - -
22/11:00am 24.7 N 14 20 1019.0 - 0.0 - - - - - - -
22/10:30am 23.9 N 13 23 1019.3 - 0.0 - - - - - - -
22/10:00am 22.8 N 15 25 1019.4 - 0.0 - - - - - - -
22/09:30am 22.1 N 13 23 1019.4 - 0.0 - - - - - - -
22/09:00am 21.1 N 13 23 1019.5 - 0.0 - - - - - - -
22/08:30am 20.4 N 12 26 1019.5 - 0.0 - - - - - - -
22/08:00am 19.4 N 10 18 1019.7 - 0.0 - - - - - - -
22/07:30am 18.9 N 10 15 1019.7 - 0.0 - - - - - - -
22/07:00am 18.4 N 8 14 1019.7 - 0.0 - - - - - - -
22/06:30am 18.3 N 8 13 1019.7 - 0.0 - - - - - - -
22/06:00am 18.4 N 8 11 1019.6 - 0.0 - - - - - - -
22/05:30am 17.9 N 6 11 1019.5 - 0.0 - - - - - - -
22/05:00am 16.9 NNE 6 8 1019.4 - 0.0 - - - - - - -
22/04:30am 16.3 NNE 7 8 1019.4 - 0.0 - - - - - - -
22/04:00am 16.6 NNE 6 8 1019.6 - 0.0 - - - - - - -
22/03:30am 16.5 NNE 6 7 1019.9 - 0.0 - - - - - - -
22/03:00am 16.4 NNE 6 7 1020.2 - 0.0 - - - - - - -
22/02:30am 15.6 CALM 0 3 1020.5 - 0.0 - - - - - - -
22/02:00am 16.7 N 2 7 1020.6 - 0.0 - - - - - - -
22/01:30am 17.4 NNE 5 6 1020.9 - 0.0 - - - - - - -
22/01:00am 17.8 N 4 5 1021.3 - 0.0 - - - - - - -
22/12:30am 18.3 NNE 3 5 1021.7 - 0.0 - - - - - - -
22/12:00am 17.8 N 2 5 1022.1 - 0.0 - - - - - - -
 
Date/Time
EDT
Temp

°C
Wind Pressure Rain
since 9am
mm
Weather Cloud Vis
km
Sea
Height
m
Swell
Dir
 
Speed
knots
Gust
knots
hPa Trend Height
m
Period
s
Dir
21/11:30pm 18.4 ENE 3 5 1022.3 - 0.0 - - - - - - -
21/11:00pm 17.9 CALM 0 0 1022.5 - 0.0 - - - - - - -
21/10:30pm 19.8 NE 2 5 1022.6 - 0.0 - - - - - - -
21/10:00pm 18.6 CALM 0 0 1022.6 - 0.0 - - - - - - -
21/09:30pm 19.9 CALM 0 0 1022.5 - 0.0 - - - - - - -
21/09:00pm 21.1 ESE 1 4 1022.3 - 0.0 - - - - - - -
21/08:30pm 21.9 SSE 2 5 1022.1 - 0.0 - - - - - - -
21/08:00pm 22.8 ESE 4 7 1022.1 - 0.0 - - - - - - -
21/07:30pm 23.8 ESE 5 8 1021.9 - 0.0 - - - - - - -
21/07:00pm 24.7 SE 7 11 1021.8 - 0.0 - - - - - - -
21/06:30pm 25.8 SSE 6 9 1021.7 - 0.0 - - - - - - -
21/06:00pm 26.4 S 6 11 1021.7 - 0.0 - - - - - - -
21/05:30pm 27.2 SE 5 9 1021.6 - 0.0 - - - - - - -
21/05:00pm 27.9 S 4 7 1021.8 - 0.0 - - - - - - -
21/04:30pm 27.9 SSW 3 7 1022.0 - 0.0 - - - - - - -
21/04:00pm 27.2 SSE 5 7 1022.2 - 0.0 - - - - - - -
21/03:30pm 27.1 SSW 5 9 1022.8 - 0.0 - - - - - - -
21/03:00pm 27.2 N 6 11 1023.2 - 0.0 - - - - - - -
21/02:30pm 26.8 NW 6 11 1023.7 - 0.0 - - - - - - -
21/02:00pm 25.8 NNW 9 13 1024.2 - 0.0 - - - - - - -
21/01:30pm 25.5 NE 7 11 1024.7 - 0.0 - - - - - - -
21/01:00pm 24.2 NNE 5 11 1025.1 - 0.0 - - - - - - -
21/12:30pm 23.1 NE 7 11 1025.5 - 0.0 - - - - - - -
21/12:00pm 21.6 ENE 6 11 1025.9 - 0.0 - - - - - - -
21/11:30am 20.9 NE 6 10 1026.4 - 0.0 - - - - - - -
21/11:00am 19.8 NE 6 9 1026.8 - 0.0 - - - - - - -
21/10:30am 18.5 ENE 4 7 1027.1 - 0.0 - - - - - - -
21/10:00am 16.7 ENE 4 7 1027.5 - 0.0 - - - - - - -
21/09:30am 14.8 NE 5 7 1027.6 - 0.0 - - - - - - -
21/09:00am 13.4 NE 4 7 1027.6 - 0.0 - - - - - - -
21/08:30am 11.2 NNE 5 7 1027.7 - 0.0 - - - - - - -
21/08:00am 10.2 NE 5 6 1027.3 - 0.0 - - - - - - -
21/07:30am 8.8 NNE 5 6 1027.1 - 0.0 - - - - - - -
21/07:00am 8.2 NNE 5 6 1026.9 - 0.0 - - - - - - -
21/06:30am 8.1 NNE 5 7 1026.8 - 0.0 - - - - - - -
21/06:00am 8.3 NNE 6 8 1026.4 - 0.0 - - - - - - -
21/05:30am 8.6 NNE 6 7 1026.2 - 0.0 - - - - - - -
21/05:00am 9.0 NNE 2 5 1026.3 - 0.0 - - - - - - -
21/04:30am 9.0 NNE 4 6 1026.3 - 0.0 - - - - - - -
21/04:00am 8.4 CALM 0 3 1026.3 - 0.0 - - - - - - -
21/03:30am 8.7 CALM 0 0 1026.2 - 0.0 - - - - - - -
21/03:00am 9.2 CALM 0 3 1026.4 - 0.0 - - - - - - -
21/02:30am 10.1 ENE 1 3 1026.5 - 0.0 - - - - - - -
21/02:00am 9.7 CALM 0 0 1026.7 - 0.0 - - - - - - -
21/01:30am 10.3 CALM 0 0 1026.9 - 0.0 - - - - - - -
21/01:00am 11.5 ESE 1 3 1027.1 - 0.0 - - - - - - -
21/12:30am 11.9 E 2 6 1027.2 - 0.0 - - - - - - -
21/12:00am 12.2 E 3 6 1027.3 - 0.0 - - - - - - -
 
Date/Time
EDT
Temp

°C
Wind Pressure Rain
since 9am
mm
Weather Cloud Vis
km
Sea
Height
m
Swell
Dir
 
Speed
knots
Gust
knots
hPa Trend Height
m
Period
s
Dir
20/11:30pm 12.5 ESE 3 5 1027.4 - 0.0 - - - - - - -
20/11:00pm 12.8 ESE 2 5 1027.4 - 0.0 - - - - - - -
20/10:30pm 13.2 SE 5 9 1027.3 - 0.0 - - - - - - -
20/10:00pm 13.5 SSE 4 7 1027.5 - 0.0 - - - - - - -
20/09:30pm 13.9 SSE 5 11 1027.5 - 0.0 - - - - - - -
20/09:00pm 14.5 SSE 7 16 1027.4 - 0.0 - - - - - - -
20/08:30pm 15.1 SSE 7 13 1027.0 - 0.0 - - - - - - -
20/08:00pm 15.9 SSE 10 16 1026.9 - 0.0 - - - - - - -
20/07:30pm 16.9 SE 7 15 1026.8 - 0.0 - - - - - - -
20/07:00pm 18.1 S 11 15 1026.6 - 0.0 - - - - - - -
20/06:30pm 19.2 SE 10 18 1026.5 - 0.0 - - - - - - -
20/06:00pm 19.6 SSE 9 16 1026.6 - 0.0 - - - - - - -
20/05:30pm 19.9 SSE 10 16 1026.6 - 0.0 - - - - - - -
20/05:00pm 20.0 SE 9 18 1026.7 - 0.0 - - - - - - -
20/04:30pm 20.1 SE 10 14 1026.8 - 0.0 - - - - - - -
20/04:00pm 20.1 SE 9 20 1026.9 - 0.0 - - - - - - -
20/03:30pm 20.0 SE 11 20 1027.2 - 0.0 - - - - - - -
20/03:00pm 20.0 SE 10 17 1027.4 - 0.0 - - - - - - -
20/02:30pm 18.8 SE 9 16 1027.7 - 0.0 - - - - - - -
20/02:00pm 18.7 SSE 9 16 1028.1 - 0.0 - - - - - - -
20/01:30pm 18.4 SSE 8 15 1028.4 - 0.0 - - - - - - -
20/01:00pm 17.5 SE 10 15 1028.6 - 0.0 - - - - - - -
20/12:30pm 17.3 SE 9 19 1029.1 - 0.0 - - - - - - -
20/12:00pm 16.8 SSE 10 16 1029.4 - 0.0 - - - - - - -
20/11:30am 16.0 SSE 7 14 1029.9 - 0.0 - - - - - - -
20/11:00am 15.1 SE 8 15 1030.0 - 0.0 - - - - - - -
20/10:30am 14.6 ESE 10 19 1030.3 - 0.0 - - - - - - -
20/10:00am 14.2 SE 9 17 1030.5 - 0.0 - - - - - - -
20/09:30am 13.4 SSE 10 17 1030.7 - 0.0 - - - - - - -
20/09:00am 12.8 SE 9 16 1030.5 - 0.0 - - - - - - -
20/08:30am 12.4 SE 8 14 1030.5 - 0.0 - - - - - - -
20/08:00am 11.4 SE 7 13 1030.4 - 0.0 - - - - - - -
20/07:30am 10.7 SSE 6 10 1030.1 - 0.0 - - - - - - -
20/07:00am 10.3 SSE 6 10 1030.0 - 0.0 - - - - - - -
20/06:30am 10.4 SSE 7 9 1029.8 - 0.0 - - - - - - -
20/06:00am 10.7 SSE 7 13 1029.4 - 0.0 - - - - - - -
20/05:30am 11.0 SSE 7 12 1029.5 - 0.0 - - - - - - -
20/05:00am 11.2 SSE 6 10 1029.0 - 0.0 - - - - - - -
20/04:30am 11.6 SE 7 15 1029.0 - 0.0 - - - - - - -
20/04:00am 12.1 SSE 7 15 1028.9 - 0.0 - - - - - - -
20/03:30am 12.3 SE 7 12 1028.9 - 0.0 - - - - - - -
20/03:00am 12.0 SSE 6 9 1029.0 - 0.0 - - - - - - -
20/02:30am 12.1 SSE 10 17 1029.2 - 0.0 - - - - - - -
20/02:00am 12.8 SSE 8 11 1028.9 - 0.0 - - - - - - -
20/01:30am 12.8 SSE 9 14 1029.1 - 0.0 - - - - - - -
20/01:00am 12.9 SSE 9 15 1029.1 - 0.0 - - - - - - -
20/12:30am 12.8 SSE 9 17 1029.1 - 0.0 - - - - - - -
20/12:00am 13.0 SSE 10 16 1028.9 - 0.0 - - - - - - -
 
Date/Time
EDT
Temp

°C
Wind Pressure Rain
since 9am
mm
Weather Cloud Vis
km
Sea
Height
m
Swell
Dir
 
Speed
knots
Gust
knots
hPa Trend Height
m
Period
s
Dir
19/11:30pm 13.5 SSE 8 15 1028.7 - 0.0 - - - - - - -
19/11:00pm 14.3 S 8 16 1028.4 - 0.0 - - - - - - -
19/10:30pm 14.5 S 6 11 1028.0 - 0.0 - - - - - - -
19/10:00pm 14.7 S 7 13 1027.9 - 0.0 - - - - - - -
19/09:30pm 14.8 S 8 15 1027.8 - 0.0 - - - - - - -
19/09:00pm 15.0 S 6 12 1026.9 - 0.0 - - - - - - -
19/08:30pm 15.0 S 5 10 1026.2 - 0.0 - - - - - - -
19/08:00pm 15.0 S 8 14 1025.5 - 0.0 - - - - - - -
19/07:30pm 15.1 SSW 7 11 1025.0 - 0.0 - - - - - - -
19/07:00pm 15.2 SSW 9 15 1024.5 - 0.0 - - - - - - -
19/06:30pm 15.3 SSW 8 16 1023.7 - 0.0 - - - - - - -
19/06:00pm 15.6 SSW 10 21 1023.0 - 0.0 - - - - - - -
19/05:30pm 15.5 S 9 18 1022.1 - 0.0 - - - - - - -
19/05:00pm 15.6 SSW 9 16 1021.2 - 0.0 - - - - - - -
19/04:30pm 16.0 SSW 9 18 1020.2 - 0.0 - - - - - - -
19/04:00pm 17.8 SSW 9 16 1019.7 - 0.0 - - - - - - -
19/03:36pm 21.7 SW 12 21 1019.3 - 0.0 - - - - - - -
19/03:30pm 28.9 NW 8 10 1018.6 - 0.0 - - - - - - -
19/03:00pm 27.8 N 11 20 1018.7 - 0.0 - - - - - - -
19/02:30pm 26.3 N 12 19 1019.0 - 0.0 - - - - - - -
19/02:00pm 25.9 N 14 21 1019.5 - 0.0 - - - - - - -
19/01:30pm 25.9 N 14 21 1019.7 - 0.0 - - - - - - -
19/01:12pm 25.6 N 15 25 1019.6 - 0.0 - - - - - - -
19/01:00pm 26.2 N 14 23 1019.8 - 0.0 - - - - - - -

Other Formats:

Comma delimited format used in spreadsheet applications
http://www.bom.gov.au/fwo/IDV60701/IDV60701.95936.axf

JavaScript Object Notation format (JSON) in row-major order
http://www.bom.gov.au/fwo/IDV60701/IDV60701.95936.json